CZ-6A R/B

Satellite information

Favourite Embed

Satellite Type and Status

ROCKET BODYIN ORBIT

Key statistics

Satellite CZ-6A R/B at a glance.

Uptime

57

Days in orbit

Revolutions

≈ 14.3

Per day

Orbit

LEO

Low Earth Orbit

Inclination

86.0

Latest

Satellite identification and parameters

Extended collection of information and parameters for CZ-6A R/B.

Object identification

Identified? True

Debris? False

Object name: CZ-6A R/B

International designator: 2025-096D

Object number (NORAD): 63921

Object ID (CCSDS): 63921

Country: PEOPLES REPUBLIC OF CHINA (PRC)

Current information (Y/N): Y

RCS size: LARGE

Orbital parameters

Period: 100.96 minutes

Inclination: 85.993 deg

SMA: 7182.251 km

Apoapsis: 815.244 km

Periapsis: 792.987 km

RAAN: 342.281 deg

Eccentricy: 0.0015494

Argument of periapsis: 80.7295 deg

Mean anomaly: 279.5647 deg

Mean motion: 14.26303424 rev/day

Mean motion (dot): 0.00000191 rev/day2

B* drag term: 0.000071528 1/REarth

Two-line elements (TLE)

Creation date: July 6, 2025, 10:26 p.m.

Reference frame: TEME

Reference center: EARTH

Epoch: July 6, 2025, 8:56 p.m. UTC

TLE line 0: 0 CZ-6A R/B

TLE line 1: 1 63921U 25096D 25187.87265201 .00000191 00000-0 71528-4 0 9995

TLE line 2: 2 63921 85.9930 342.2810 0015494 80.7295 279.5647 14.26303424 7883

Live tracking on map

Real-time ground track for satellite CZ-6A R/B.

In-orbit conjunctions

A list of the most updated potential collisions computed for object CZ-6A R/B.

Target Orbit TCA Probability of collision Miss distance Type
CZ-6A DEB SSO 2025-06-01 03:21:43 0.0002980276 661.0 (m) DEBRIS

Associated space launch

3 Chinese reconnaissance satellites of unknown purposes, officially reported as for "Electromagnetic environment probing".

CZ-6A R/B was lifted into orbit during the mission ‘Long March 6A | Yaogan 40 Group 02’, on board a Long March 6A space rocket.

The launch took place on May 11, 2025, 1:27 p.m. from Launch Complex 9A.

For more information about the launch, click the button.

Launch to space Long March 6A | Yaogan 40 Group 02
Long March 6A | Yaogan 40 Group 02

Agency: N/A

Status: Launch Successful

Launch date: May 11, 2025, 1:27 p.m. UTC

Rocket: Long March 6A

Launch pad: Launch Complex 9A

Location: Taiyuan Satellite Launch Center, People's Republic of China

...

Latest news about this satellite

News about space launch
China adds to classified TJS, Yaogan satellite series with two launches

China has added new spacecraft to two separate classified satellite series with a pair of launches across Sunday and Monday. The post China adds to classified TJS, Yaogan satellite series with two launches appeared first on SpaceNews.


Newsletter sign-up

Weekly statistics, charts and insights to help you stay on top of the space industry.